�N����,����,�~����,�C��,���x,�C��,����,���ϕ���,�ő�u�ԕ���,�ő厞����,���˗�,�I�_���x,�n�����x,�ő啗���N��,DTYPE
"20/08/11","00:10",0.0,28.3,76.7,1007.4,11.2,0.7,1.3,325.8,0.00,23.9,27.3,"00:09:52",1
"20/08/11","00:20",0.0,28.1,77.8,1006.9,3.6,1.0,1.6,341.9,0.00,23.9,27.5,"00:12:32",1
"20/08/11","00:30",0.0,28.1,77.9,1006.9,57.9,0.7,1.4,228.4,0.00,23.9,27.4,"00:24:00",1
"20/08/11","00:40",0.0,28.2,77.9,1007.1,326.0,1.0,1.9,341.4,0.00,24.0,27.6,"00:32:00",1
"20/08/11","00:50",0.0,28.2,78.0,1006.7,314.1,1.1,2.0,336.0,0.00,24.0,27.5,"00:45:44",1
"20/08/11","01:00",0.0,28.3,78.0,1006.7,321.3,1.1,2.2,342.5,0.00,24.1,27.5,"00:57:12",1
"20/08/11","01:10",0.0,28.2,77.9,1006.4,286.8,0.6,1.3,335.6,0.00,24.0,27.4,"01:00:08",1
"20/08/11","01:20",0.0,28.2,78.2,1006.9,358.1,0.5,1.0,337.7,0.00,24.1,27.5,"01:17:20",1
"20/08/11","01:30",0.0,28.0,78.9,1006.7,293.2,0.8,1.8,332.5,0.00,24.0,27.4,"01:22:16",1
"20/08/11","01:40",0.0,27.8,79.3,1006.9,292.7,0.2,0.5,315.2,0.00,23.9,27.3,"01:30:32",1
"20/08/11","01:50",0.0,27.8,79.8,1006.9,300.1,0.7,1.2,299.6,0.00,24.0,27.6,"01:42:16",1
"20/08/11","02:00",0.0,28.0,80.1,1006.4,359.5,0.7,1.2,359.7,0.00,24.3,27.5,"01:58:00",1
"20/08/11","02:10",0.0,27.8,80.6,1007.1,307.4,0.8,1.6,323.7,0.00,24.2,27.4,"02:03:44",1
"20/08/11","02:20",0.0,27.6,81.1,1006.9,303.4,0.6,1.3,338.6,0.00,24.1,27.0,"02:18:40",1
"20/08/11","02:30",0.0,27.7,81.5,1006.9,345.4,0.7,1.4,344.1,0.00,24.3,27.3,"02:24:00",1
"20/08/11","02:40",0.0,27.6,81.7,1006.9,260.3,0.2,0.8,330.4,0.00,24.2,27.3,"02:30:08",1
"20/08/11","02:50",0.0,27.6,82.1,1006.9,327.2,0.5,1.2,356.5,0.00,24.3,27.3,"02:49:28",1
"20/08/11","03:00",0.0,27.5,82.5,1006.9,344.0,0.8,1.8,341.0,0.00,24.3,27.2,"02:51:44",1
"20/08/11","03:10",0.0,27.6,82.7,1007.1,264.2,1.0,3.3,223.6,0.00,24.4,27.3,"03:08:32",1
"20/08/11","03:20",0.0,27.9,82.1,1006.9,297.8,0.6,1.1,324.8,0.00,24.6,27.1,"03:10:56",1
"20/08/11","03:30",0.0,27.9,81.9,1006.9,336.1,0.8,1.2,341.0,0.00,24.6,27.2,"03:20:16",1
"20/08/11","03:40",0.0,27.7,82.2,1006.9,338.0,1.1,2.0,339.9,0.00,24.4,27.2,"03:32:56",1
"20/08/11","03:50",0.0,27.4,82.7,1006.9,306.0,0.3,0.9,357.4,0.00,24.2,27.2,"03:42:24",1
"20/08/11","04:00",0.0,27.3,83.3,1007.1,284.5,0.5,1.2,5.0,0.00,24.3,27.1,"03:52:16",1
"20/08/11","04:10",0.0,27.3,83.7,1006.9,327.8,0.6,1.1,12.1,0.00,24.3,27.2,"04:04:32",1
"20/08/11","04:20",0.0,27.3,84.2,1007.1,299.3,0.5,1.3,342.9,0.00,24.4,27.1,"04:10:02",1
"20/08/11","04:30",0.0,27.3,84.7,1007.1,328.9,0.8,1.7,336.4,0.00,24.5,26.9,"04:22:08",1
"20/08/11","04:40",0.0,27.4,85.1,1007.4,323.4,0.7,1.0,310.2,0.00,24.7,26.9,"04:31:04",1
"20/08/11","04:50",0.0,27.5,85.3,1007.4,333.7,0.5,1.2,345.5,0.00,24.8,27.0,"04:47:36",1
"20/08/11","05:00",0.0,27.4,85.4,1007.4,312.9,0.3,0.9,345.3,0.00,24.8,27.1,"04:53:04",1
"20/08/11","05:10",0.0,27.4,85.7,1007.8,311.1,0.6,1.3,338.8,0.00,24.8,27.1,"05:07:36",1
"20/08/11","05:20",0.0,27.2,86.0,1007.6,339.3,0.8,1.4,335.0,0.00,24.7,26.9,"05:10:24",1
"20/08/11","05:30",0.0,27.2,86.3,1008.1,317.6,0.6,1.2,339.3,0.00,24.8,26.9,"05:29:20",1
"20/08/11","05:40",0.0,27.2,86.5,1007.8,308.5,0.5,0.9,337.2,0.00,24.8,27.1,"05:30:08",1
"20/08/11","05:50",0.0,27.4,86.7,1008.1,337.1,0.6,1.1,343.9,0.00,25.0,26.9,"05:49:28",1
"20/08/11","06:00",0.0,27.4,86.7,1008.3,340.6,0.7,1.4,339.8,0.00,25.0,26.9,"05:50:16",1
"20/08/11","06:10",0.0,27.5,86.6,1008.1,335.2,1.0,1.4,357.5,0.01,25.1,27.1,"06:01:28",1
"20/08/11","06:20",0.0,27.6,86.4,1008.1,323.6,0.8,1.3,333.4,0.01,25.2,26.9,"06:14:56",1
"20/08/11","06:30",0.0,27.7,86.3,1008.3,308.4,0.6,1.0,316.2,0.01,25.2,27.1,"06:25:20",1
"20/08/11","06:40",0.0,27.9,86.2,1008.3,294.2,0.5,0.9,307.7,0.01,25.4,27.2,"06:33:28",1
"20/08/11","06:50",0.0,28.1,86.1,1008.3,317.7,0.2,0.8,349.1,0.02,25.6,26.9,"06:40:02",1
"20/08/11","07:00",0.0,28.2,85.6,1008.6,348.9,0.8,1.8,345.4,0.01,25.6,27.1,"06:53:12",1
"20/08/11","07:10",0.0,28.1,85.3,1008.6,342.0,1.0,1.7,347.2,0.02,25.4,27.2,"07:02:56",1
"20/08/11","07:20",0.0,28.4,84.8,1008.6,338.3,0.8,1.6,342.4,0.04,25.6,27.1,"07:10:40",1
"20/08/11","07:30",0.0,28.4,84.3,1008.3,334.0,0.5,1.0,342.4,0.02,25.5,27.2,"07:20:08",1
"20/08/11","07:40",0.0,28.6,83.5,1008.6,345.1,0.7,1.4,340.0,0.05,25.6,27.0,"07:36:24",1
"20/08/11","07:50",0.0,29.0,83.0,1008.6,332.6,0.8,1.3,343.0,0.04,25.9,27.2,"07:40:48",1
"20/08/11","08:00",0.0,29.0,82.7,1008.3,23.2,0.2,0.8,342.0,0.04,25.8,27.1,"07:50:08",1
"20/08/11","08:10",0.0,29.2,82.0,1008.3,324.2,0.2,1.2,355.6,0.06,25.8,27.3,"08:09:36",1
"20/08/11","08:20",0.0,29.4,81.1,1008.3,1.0,0.6,1.1,347.2,0.06,25.9,27.2,"08:14:48",1
"20/08/11","08:30",0.0,29.8,80.4,1008.3,323.4,0.5,1.0,324.8,0.09,26.1,27.3,"08:21:04",1
"20/08/11","08:40",0.0,30.2,79.1,1008.8,348.7,1.1,2.1,340.6,0.14,26.2,27.5,"08:39:44",1
"20/08/11","08:50",0.0,30.2,78.0,1008.8,319.8,0.3,2.0,344.7,0.07,26.0,27.5,"08:48:48",1
"20/08/11","09:00",0.0,30.6,77.0,1008.8,334.3,1.0,2.1,351.9,0.14,26.1,27.6,"08:56:40",1
"20/08/11","09:10",0.0,31.3,75.9,1009.3,326.1,0.6,1.6,341.1,0.21,26.6,27.9,"09:04:40",1
"20/08/11","09:20",0.0,31.6,73.5,1009.5,1.5,1.0,2.5,348.4,0.21,26.3,27.8,"09:11:20",1
"20/08/11","09:30",0.0,32.0,71.9,1009.5,22.4,0.8,1.7,49.3,0.16,26.3,27.7,"09:25:28",1
"20/08/11","09:40",0.0,31.8,70.9,1009.5,141.9,1.6,2.9,183.7,0.21,25.9,28.0,"09:39:20",1
"20/08/11","09:50",0.0,32.8,68.6,1009.7,191.9,2.2,4.7,224.9,0.33,26.3,28.0,"09:42:16",1
"20/08/11","10:00",0.0,34.1,64.1,1010.4,185.4,1.6,3.3,143.2,0.55,26.4,28.2,"09:59:44",1
"20/08/11","10:10",0.0,34.4,62.1,1010.7,177.7,2.2,5.1,214.3,0.57,26.1,28.5,"10:07:52",1
"20/08/11","10:20",0.0,34.5,61.0,1010.9,206.0,3.0,5.6,220.1,0.61,25.9,28.9,"10:18:16",1
"20/08/11","10:30",0.0,34.5,61.6,1010.9,166.1,2.1,4.0,186.4,0.49,26.1,29.0,"10:23:04",1
"20/08/11","10:40",0.0,34.9,60.1,1010.9,210.5,2.6,5.5,195.3,0.61,26.0,29.0,"10:31:12",1
"20/08/11","10:50",0.0,34.6,58.9,1010.9,199.7,2.2,4.9,191.7,0.40,25.4,29.3,"10:48:10",1
"20/08/11","11:00",0.0,33.8,62.2,1010.4,194.0,2.0,5.1,197.4,0.17,25.6,29.2,"10:50:08",1
"20/08/11","11:10",0.0,33.2,62.6,1010.2,252.0,1.5,4.2,219.0,0.20,25.1,29.1,"11:04:24",1
"20/08/11","11:20",0.0,33.5,62.2,1010.0,225.6,2.2,4.8,229.6,0.29,25.3,29.4,"11:17:28",1
"20/08/11","11:30",0.0,33.8,61.1,1010.0,213.1,2.0,4.9,205.1,0.29,25.3,29.5,"11:20:08",1
"20/08/11","11:40",0.0,34.1,61.4,1010.0,222.1,1.6,4.0,209.7,0.29,25.7,29.5,"11:32:40",1
"20/08/11","11:50",0.0,34.5,59.4,1010.2,204.1,1.5,4.5,212.6,0.27,25.5,29.6,"11:43:12",1
"20/08/11","12:00",0.0,34.8,58.4,1010.2,205.5,1.3,4.1,227.0,0.36,25.5,29.8,"11:56:48",1
"20/08/11","12:10",0.0,35.4,56.8,1010.4,212.4,1.5,4.1,215.4,0.43,25.6,29.6,"12:03:20",1
"20/08/11","12:20",0.0,35.1,56.1,1010.0,234.3,1.6,5.2,207.8,0.32,25.1,30.1,"12:15:52",1
"20/08/11","12:30",0.0,34.5,57.4,1010.2,245.3,1.8,5.6,218.8,0.32,24.9,29.9,"12:22:08",1
"20/08/11","12:40",0.0,35.3,56.6,1009.7,234.7,1.8,4.8,226.7,0.47,25.4,30.5,"12:32:24",1
"20/08/11","12:50",0.0,35.8,54.1,1010.2,208.3,1.8,4.5,215.2,0.41,25.1,30.5,"12:42:32",1
"20/08/11","13:00",0.0,36.3,52.9,1010.0,205.3,2.7,6.4,203.8,0.61,25.2,30.7,"12:56:48",1
"20/08/11","13:10",0.0,36.2,53.7,1009.7,204.2,3.0,5.2,211.6,0.60,25.4,31.0,"13:03:04",1
"20/08/11","13:20",0.0,36.2,51.9,1010.0,185.3,2.8,6.6,213.6,0.57,24.8,31.2,"13:19:52",1
"20/08/11","13:30",0.0,36.1,53.3,1009.7,202.4,3.7,7.8,214.7,0.56,25.1,31.2,"13:23:52",1
"20/08/11","13:40",0.0,36.5,52.8,1010.0,217.2,2.5,6.2,213.7,0.53,25.3,31.2,"13:32:32",1
"20/08/11","13:50",0.0,35.6,53.8,1009.7,252.5,1.8,4.9,224.8,0.25,24.8,31.3,"13:44:40",1
"20/08/11","14:00",0.0,35.5,54.6,1009.5,231.1,1.8,3.9,248.3,0.39,25.0,31.4,"13:53:28",1
"20/08/11","14:10",0.0,35.2,55.4,1009.5,230.8,1.8,3.6,232.5,0.22,25.0,31.5,"14:09:28",1
"20/08/11","14:20",0.0,35.5,55.1,1009.5,257.4,1.6,4.8,208.1,0.42,25.1,31.3,"14:19:44",1
"20/08/11","14:30",0.0,36.4,52.1,1009.3,245.6,1.5,3.5,354.8,0.46,25.0,31.4,"14:29:36",1
"20/08/11","14:40",0.0,36.6,51.9,1009.3,222.7,2.2,7.5,209.2,0.50,25.1,31.6,"14:32:24",1
"20/08/11","14:50",0.0,36.7,51.2,1009.3,237.0,1.7,4.9,205.8,0.47,25.0,31.6,"14:48:32",1
"20/08/11","15:00",0.0,36.8,51.2,1009.0,245.5,1.6,5.7,212.3,0.46,25.1,31.7,"14:50:24",1
"20/08/11","15:10",0.0,35.7,52.6,1009.3,233.9,1.7,4.9,225.7,0.20,24.5,31.6,"15:05:44",1
"20/08/11","15:20",0.0,34.4,56.2,1008.8,251.9,1.7,5.5,229.2,0.10,24.5,31.5,"15:14:48",1
"20/08/11","15:30",0.0,33.8,58.2,1008.3,269.1,1.7,4.0,238.1,0.10,24.5,31.6,"15:29:36",1
"20/08/11","15:40",0.0,33.6,59.2,1008.6,273.7,1.6,3.7,310.1,0.10,24.6,31.5,"15:31:12",1
"20/08/11","15:50",0.0,33.3,59.2,1008.1,262.4,1.6,4.0,230.2,0.07,24.3,31.4,"15:42:32",1
"20/08/11","16:00",0.0,33.2,59.7,1007.8,261.8,1.0,2.1,192.1,0.05,24.3,31.3,"15:56:00",1
"20/08/11","16:10",0.0,33.1,60.5,1007.4,336.9,1.1,2.8,355.4,0.07,24.5,30.9,"16:06:24",1
"20/08/11","16:20",0.0,33.2,61.2,1007.4,317.2,1.1,2.9,332.3,0.09,24.8,31.0,"16:12:08",1
"20/08/11","16:30",0.0,33.5,60.1,1007.8,275.2,1.1,2.8,226.4,0.11,24.7,30.8,"16:28:00",1
"20/08/11","16:40",0.0,34.5,57.5,1007.4,320.6,0.8,3.1,310.7,0.21,24.9,30.9,"16:36:08",1
"20/08/11","16:50",0.0,34.4,55.9,1007.6,249.3,1.6,4.1,216.2,0.18,24.4,30.8,"16:49:20",1
"20/08/11","17:00",0.0,34.2,56.1,1008.1,233.1,1.6,5.0,220.7,0.15,24.2,30.9,"16:58:08",1
"20/08/11","17:10",0.0,33.8,56.8,1007.8,252.1,1.7,4.1,217.7,0.12,24.1,30.7,"17:07:04",1
"20/08/11","17:20",0.0,33.8,58.1,1007.8,242.7,2.2,5.1,215.1,0.10,24.4,30.7,"17:16:48",1
"20/08/11","17:30",0.0,33.7,57.9,1008.1,233.9,2.0,5.8,218.2,0.08,24.3,30.7,"17:23:04",1
"20/08/11","17:40",0.0,33.9,58.0,1008.1,232.9,0.7,2.0,225.6,0.05,24.5,30.5,"17:30:02",1
"20/08/11","17:50",0.0,33.0,59.4,1008.1,242.5,1.7,4.5,224.8,0.00,24.1,30.5,"17:44:56",1
"20/08/11","18:00",0.0,32.5,60.8,1007.8,254.5,1.3,3.1,198.9,0.00,24.0,30.2,"17:59:52",1
"20/08/11","18:10",0.0,32.1,62.5,1007.6,248.5,1.2,2.9,183.4,0.00,24.1,30.1,"18:08:32",1
"20/08/11","18:20",0.0,31.7,63.9,1007.6,303.0,0.7,2.5,267.2,0.00,24.1,30.1,"18:18:16",1
"20/08/11","18:30",0.0,31.5,64.8,1007.6,284.1,1.1,2.2,335.0,0.00,24.1,29.9,"18:22:32",1
"20/08/11","18:40",0.0,31.3,64.9,1007.4,243.5,1.6,6.2,229.5,0.00,23.9,30.0,"18:39:52",1
"20/08/11","18:50",0.0,31.3,65.1,1007.4,224.6,1.3,3.9,214.5,0.00,24.0,30.0,"18:47:36",1
"20/08/11","19:00",0.0,31.1,65.6,1007.4,251.2,2.2,10.0,185.1,0.00,23.9,29.7,"18:53:52",1
"20/08/11","19:10",0.0,30.9,66.3,1007.8,272.4,1.2,3.7,214.3,0.00,23.9,29.6,"19:01:28",1
"20/08/11","19:20",0.0,30.7,67.2,1007.6,254.5,1.5,4.0,355.8,0.00,24.0,29.6,"19:13:52",1
"20/08/11","19:30",0.0,30.6,68.2,1007.6,266.3,1.6,5.2,227.8,0.00,24.1,29.7,"19:20:08",1
"20/08/11","19:40",0.0,30.4,69.1,1007.8,253.7,1.1,2.5,219.6,0.00,24.1,29.2,"19:34:16",1
"20/08/11","19:50",0.0,30.3,70.0,1007.8,313.3,0.8,2.8,351.0,0.00,24.3,29.3,"19:46:40",1
"20/08/11","20:00",0.0,30.2,71.4,1007.6,313.9,1.0,3.2,347.2,0.00,24.5,29.1,"19:52:48",1
"20/08/11","20:10",0.0,29.8,73.7,1007.6,329.4,0.8,1.9,353.8,0.00,24.6,29.1,"20:08:40",1
"20/08/11","20:20",0.0,29.5,75.1,1007.8,289.2,0.8,2.1,345.6,0.00,24.7,29.0,"20:11:44",1
"20/08/11","20:30",0.0,29.5,76.0,1008.1,323.4,0.6,1.9,331.2,0.00,24.9,29.0,"20:23:52",1
"20/08/11","20:40",0.0,29.3,76.9,1008.1,50.1,0.8,1.6,129.5,0.00,24.9,28.9,"20:32:56",1
"20/08/11","20:50",0.0,29.2,77.3,1008.3,272.3,1.1,3.4,39.7,0.00,24.9,28.7,"20:41:12",1
"20/08/11","21:00",0.0,29.3,77.3,1008.1,131.7,0.7,1.7,114.2,0.00,25.0,28.8,"20:59:04",1
"20/08/11","21:10",0.0,29.0,77.6,1008.8,185.7,0.7,1.6,132.8,0.00,24.7,28.7,"21:08:24",1
"20/08/11","21:20",0.0,29.0,77.8,1008.8,188.3,1.0,2.7,207.6,0.00,24.8,28.7,"21:15:28",1
"20/08/11","21:30",0.0,29.0,77.8,1008.3,181.7,1.0,1.7,187.7,0.00,24.8,28.4,"21:21:12",1
"20/08/11","21:40",0.0,28.9,77.8,1008.6,184.0,1.0,2.6,180.2,0.00,24.7,28.4,"21:39:52",1
"20/08/11","21:50",0.0,28.9,77.6,1008.8,180.7,0.8,2.1,220.9,0.00,24.6,28.4,"21:43:28",1
"20/08/11","22:00",0.0,28.8,78.0,1008.8,266.7,0.5,1.4,332.7,0.00,24.6,28.2,"21:59:20",1
"20/08/11","22:10",0.0,28.6,78.7,1008.6,297.1,0.5,1.2,346.8,0.00,24.6,28.1,"22:07:52",1
"20/08/11","22:20",0.0,28.2,80.0,1009.0,331.4,0.7,1.8,341.1,0.00,24.5,28.2,"22:15:12",1
"20/08/11","22:30",0.0,27.8,81.2,1009.3,305.7,0.7,1.3,329.7,0.00,24.3,28.3,"22:21:28",1
"20/08/11","22:40",0.0,27.7,82.2,1009.0,314.4,0.8,1.3,316.6,0.00,24.4,27.8,"22:38:00",1
"20/08/11","22:50",0.0,27.6,82.8,1009.0,335.4,0.7,1.6,337.3,0.00,24.5,28.3,"22:47:36",1
"20/08/11","23:00",0.0,27.4,83.4,1009.0,319.9,0.6,1.3,332.9,0.00,24.4,28.0,"22:58:32",1
"20/08/11","23:10",0.0,27.1,84.0,1009.3,329.4,0.8,1.8,345.2,0.00,24.2,27.9,"23:02:48",1
"20/08/11","23:20",0.0,27.0,84.7,1008.6,336.2,0.6,1.1,330.2,0.00,24.2,27.9,"23:15:04",1
"20/08/11","23:30",0.0,26.8,85.3,1009.3,330.2,0.8,1.3,318.7,0.00,24.2,28.0,"23:22:48",1
"20/08/11","23:40",0.0,26.9,86.0,1009.0,348.6,1.0,1.7,341.8,0.00,24.4,27.7,"23:37:44",1
"20/08/11","23:50",0.0,26.8,86.4,1009.3,334.3,0.7,1.4,336.5,0.00,24.4,27.7,"23:40:24",1
"20/08/11","24:00",0.0,26.8,86.7,1009.3,333.9,0.6,1.1,338.6,0.00,24.4,27.3,"23:53:12",1
